HVDC transfer

From www.emi.ea.govt.nz provided by the Electricity Authority (New Zealand)
Run at: 20240520062729

Parameters
Date range,02 May 2024 - 08 May 2024
Time scale,Trading period
Show,Average flow (MW)

Period start,Period end,Trading period,Direction,Energy transfer (GWh),Peak flow (MW),Average flow (MW)
02/05/2024 00:00:00,02/05/2024 00:30:00,1,Southward at Benmore,-0.110,-220,-220
02/05/2024 00:30:00,02/05/2024 01:00:00,2,Southward at Benmore,-0.131,-262,-262
02/05/2024 01:00:00,02/05/2024 01:30:00,3,Southward at Benmore,-0.160,-320,-320
02/05/2024 01:30:00,02/05/2024 02:00:00,4,Southward at Benmore,-0.155,-311,-311
02/05/2024 02:00:00,02/05/2024 02:30:00,5,Southward at Benmore,-0.160,-320,-320
02/05/2024 02:30:00,02/05/2024 03:00:00,6,Southward at Benmore,-0.132,-264,-264
02/05/2024 03:00:00,02/05/2024 03:30:00,7,Southward at Benmore,-0.115,-230,-230
02/05/2024 03:30:00,02/05/2024 04:00:00,8,Southward at Benmore,-0.099,-199,-199
02/05/2024 04:00:00,02/05/2024 04:30:00,9,Southward at Benmore,-0.089,-179,-179
02/05/2024 04:30:00,02/05/2024 05:00:00,10,Southward at Benmore,-0.086,-172,-172
02/05/2024 05:00:00,02/05/2024 05:30:00,11,Southward at Benmore,-0.026,-52,-52
02/05/2024 05:30:00,02/05/2024 06:00:00,12,Northward at Haywards,0.032,64,64
02/05/2024 06:00:00,02/05/2024 06:30:00,13,Northward at Haywards,0.100,199,199
02/05/2024 06:30:00,02/05/2024 07:00:00,14,Northward at Haywards,0.210,420,420
02/05/2024 07:00:00,02/05/2024 07:30:00,15,Northward at Haywards,0.246,491,491
02/05/2024 07:30:00,02/05/2024 08:00:00,16,Northward at Haywards,0.281,562,562
02/05/2024 08:00:00,02/05/2024 08:30:00,17,Northward at Haywards,0.288,575,575
02/05/2024 08:30:00,02/05/2024 09:00:00,18,Northward at Haywards,0.269,538,538
02/05/2024 09:00:00,02/05/2024 09:30:00,19,Northward at Haywards,0.249,497,497
02/05/2024 09:30:00,02/05/2024 10:00:00,20,Northward at Haywards,0.250,499,499
02/05/2024 10:00:00,02/05/2024 10:30:00,21,Northward at Haywards,0.267,533,533
02/05/2024 10:30:00,02/05/2024 11:00:00,22,Northward at Haywards,0.302,603,603
02/05/2024 11:00:00,02/05/2024 11:30:00,23,Northward at Haywards,0.304,607,607
02/05/2024 11:30:00,02/05/2024 12:00:00,24,Northward at Haywards,0.301,601,601
02/05/2024 12:00:00,02/05/2024 12:30:00,25,Northward at Haywards,0.302,603,603
02/05/2024 12:30:00,02/05/2024 13:00:00,26,Northward at Haywards,0.307,613,613
02/05/2024 13:00:00,02/05/2024 13:30:00,27,Northward at Haywards,0.305,610,610
02/05/2024 13:30:00,02/05/2024 14:00:00,28,Northward at Haywards,0.340,680,680
02/05/2024 14:00:00,02/05/2024 14:30:00,29,Northward at Haywards,0.351,701,701
02/05/2024 14:30:00,02/05/2024 15:00:00,30,Northward at Haywards,0.359,718,718
02/05/2024 15:00:00,02/05/2024 15:30:00,31,Northward at Haywards,0.363,725,725
02/05/2024 15:30:00,02/05/2024 16:00:00,32,Northward at Haywards,0.370,739,739
02/05/2024 16:00:00,02/05/2024 16:30:00,33,Northward at Haywards,0.330,659,659
02/05/2024 16:30:00,02/05/2024 17:00:00,34,Northward at Haywards,0.324,647,647
02/05/2024 17:00:00,02/05/2024 17:30:00,35,Northward at Haywards,0.322,643,643
02/05/2024 17:30:00,02/05/2024 18:00:00,36,Northward at Haywards,0.377,753,753
02/05/2024 18:00:00,02/05/2024 18:30:00,37,Northward at Haywards,0.388,775,775
02/05/2024 18:30:00,02/05/2024 19:00:00,38,Northward at Haywards,0.381,761,761
02/05/2024 19:00:00,02/05/2024 19:30:00,39,Northward at Haywards,0.353,706,706
02/05/2024 19:30:00,02/05/2024 20:00:00,40,Northward at Haywards,0.331,662,662
02/05/2024 20:00:00,02/05/2024 20:30:00,41,Northward at Haywards,0.292,584,584
02/05/2024 20:30:00,02/05/2024 21:00:00,42,Northward at Haywards,0.274,548,548
02/05/2024 21:00:00,02/05/2024 21:30:00,43,Northward at Haywards,0.275,550,550
02/05/2024 21:30:00,02/05/2024 22:00:00,44,Northward at Haywards,0.239,478,478
02/05/2024 22:00:00,02/05/2024 22:30:00,45,Northward at Haywards,0.141,281,281
02/05/2024 22:30:00,02/05/2024 23:00:00,46,Northward at Haywards,0.090,179,179
02/05/2024 23:00:00,02/05/2024 23:30:00,47,Northward at Haywards,0.038,76,76
02/05/2024 23:30:00,03/05/2024 00:00:00,48,Southward at Benmore,-0.006,-13,-13
03/05/2024 00:00:00,03/05/2024 00:30:00,1,Southward at Benmore,-0.059,-118,-118
03/05/2024 00:30:00,03/05/2024 01:00:00,2,Southward at Benmore,-0.037,-75,-75
03/05/2024 01:00:00,03/05/2024 01:30:00,3,Southward at Benmore,-0.029,-58,-58
03/05/2024 01:30:00,03/05/2024 02:00:00,4,Southward at Benmore,-0.037,-75,-75
03/05/2024 02:00:00,03/05/2024 02:30:00,5,Southward at Benmore,-0.034,-68,-68
03/05/2024 02:30:00,03/05/2024 03:00:00,6,Southward at Benmore,-0.027,-54,-54
03/05/2024 03:00:00,03/05/2024 03:30:00,7,Southward at Benmore,-0.033,-67,-67
03/05/2024 03:30:00,03/05/2024 04:00:00,8,Southward at Benmore,-0.045,-91,-91
03/05/2024 04:00:00,03/05/2024 04:30:00,9,Southward at Benmore,-0.053,-106,-106
03/05/2024 04:30:00,03/05/2024 05:00:00,10,Southward at Benmore,-0.038,-77,-77
03/05/2024 05:00:00,03/05/2024 05:30:00,11,Northward at Haywards,0.004,7,7
03/05/2024 05:30:00,03/05/2024 06:00:00,12,Northward at Haywards,0.132,263,263
03/05/2024 06:00:00,03/05/2024 06:30:00,13,Northward at Haywards,0.235,469,469
03/05/2024 06:30:00,03/05/2024 07:00:00,14,Northward at Haywards,0.281,562,562
03/05/2024 07:00:00,03/05/2024 07:30:00,15,Northward at Haywards,0.330,660,660
03/05/2024 07:30:00,03/05/2024 08:00:00,16,Northward at Haywards,0.316,631,631
03/05/2024 08:00:00,03/05/2024 08:30:00,17,Northward at Haywards,0.313,625,625
03/05/2024 08:30:00,03/05/2024 09:00:00,18,Northward at Haywards,0.295,590,590
03/05/2024 09:00:00,03/05/2024 09:30:00,19,Northward at Haywards,0.298,596,596
03/05/2024 09:30:00,03/05/2024 10:00:00,20,Northward at Haywards,0.297,593,593
03/05/2024 10:00:00,03/05/2024 10:30:00,21,Northward at Haywards,0.310,620,620
03/05/2024 10:30:00,03/05/2024 11:00:00,22,Northward at Haywards,0.300,599,599
03/05/2024 11:00:00,03/05/2024 11:30:00,23,Northward at Haywards,0.310,620,620
03/05/2024 13:00:00,03/05/2024 13:30:00,27,Northward at Haywards,0.323,645,645
03/05/2024 13:30:00,03/05/2024 14:00:00,28,Northward at Haywards,0.302,603,603
03/05/2024 14:00:00,03/05/2024 14:30:00,29,Northward at Haywards,0.289,578,578
03/05/2024 14:30:00,03/05/2024 15:00:00,30,Northward at Haywards,0.260,520,520
03/05/2024 15:00:00,03/05/2024 15:30:00,31,Northward at Haywards,0.258,516,516
03/05/2024 15:30:00,03/05/2024 16:00:00,32,Northward at Haywards,0.289,577,577
03/05/2024 16:00:00,03/05/2024 16:30:00,33,Northward at Haywards,0.288,575,575
03/05/2024 16:30:00,03/05/2024 17:00:00,34,Northward at Haywards,0.301,602,602
03/05/2024 17:00:00,03/05/2024 17:30:00,35,Northward at Haywards,0.305,610,610
03/05/2024 17:30:00,03/05/2024 18:00:00,36,Northward at Haywards,0.331,662,662
03/05/2024 18:00:00,03/05/2024 18:30:00,37,Northward at Haywards,0.332,664,664
03/05/2024 18:30:00,03/05/2024 19:00:00,38,Northward at Haywards,0.307,614,614
03/05/2024 19:00:00,03/05/2024 19:30:00,39,Northward at Haywards,0.352,704,704
03/05/2024 19:30:00,03/05/2024 20:00:00,40,Northward at Haywards,0.366,731,731
03/05/2024 20:00:00,03/05/2024 20:30:00,41,Northward at Haywards,0.364,728,728
03/05/2024 20:30:00,03/05/2024 21:00:00,42,Northward at Haywards,0.350,699,699
03/05/2024 21:00:00,03/05/2024 21:30:00,43,Northward at Haywards,0.350,699,699
03/05/2024 21:30:00,03/05/2024 22:00:00,44,Northward at Haywards,0.313,626,626
03/05/2024 22:00:00,03/05/2024 22:30:00,45,Northward at Haywards,0.215,429,429
03/05/2024 22:30:00,03/05/2024 23:00:00,46,Northward at Haywards,0.159,317,317
03/05/2024 23:00:00,03/05/2024 23:30:00,47,Northward at Haywards,0.101,202,202
03/05/2024 23:30:00,04/05/2024 00:00:00,48,Northward at Haywards,0.087,173,173
04/05/2024 00:00:00,04/05/2024 00:30:00,1,Northward at Haywards,0.049,97,97
04/05/2024 00:30:00,04/05/2024 01:00:00,2,Northward at Haywards,0.037,73,73
04/05/2024 01:00:00,04/05/2024 01:30:00,3,Northward at Haywards,0.032,64,64
04/05/2024 01:30:00,04/05/2024 02:00:00,4,Northward at Haywards,0.014,28,28
04/05/2024 02:00:00,04/05/2024 02:30:00,5,Northward at Haywards,0.006,12,12
04/05/2024 02:30:00,04/05/2024 03:00:00,6,Northward at Haywards,0.002,3,3
04/05/2024 03:00:00,04/05/2024 03:30:00,7,Northward at Haywards,0.014,27,27
04/05/2024 03:30:00,04/05/2024 04:00:00,8,Northward at Haywards,0.024,48,48
04/05/2024 04:00:00,04/05/2024 04:30:00,9,Northward at Haywards,0.030,59,59
04/05/2024 04:30:00,04/05/2024 05:00:00,10,Northward at Haywards,0.027,53,53
04/05/2024 05:00:00,04/05/2024 05:30:00,11,Northward at Haywards,0.041,82,82
04/05/2024 05:30:00,04/05/2024 06:00:00,12,Northward at Haywards,0.060,119,119
04/05/2024 06:00:00,04/05/2024 06:30:00,13,Northward at Haywards,0.068,136,136
04/05/2024 06:30:00,04/05/2024 07:00:00,14,Northward at Haywards,0.124,247,247
04/05/2024 07:00:00,04/05/2024 07:30:00,15,Northward at Haywards,0.174,348,348
04/05/2024 07:30:00,04/05/2024 08:00:00,16,Northward at Haywards,0.193,385,385
04/05/2024 08:00:00,04/05/2024 08:30:00,17,Northward at Haywards,0.239,477,477
04/05/2024 08:30:00,04/05/2024 09:00:00,18,Northward at Haywards,0.219,437,437
04/05/2024 09:00:00,04/05/2024 09:30:00,19,Northward at Haywards,0.203,406,406
04/05/2024 09:30:00,04/05/2024 10:00:00,20,Northward at Haywards,0.192,383,383
04/05/2024 10:00:00,04/05/2024 10:30:00,21,Northward at Haywards,0.199,397,397
04/05/2024 10:30:00,04/05/2024 11:00:00,22,Northward at Haywards,0.215,429,429
04/05/2024 11:00:00,04/05/2024 11:30:00,23,Northward at Haywards,0.215,429,429
04/05/2024 11:30:00,04/05/2024 12:00:00,24,Northward at Haywards,0.211,422,422
04/05/2024 12:00:00,04/05/2024 12:30:00,25,Northward at Haywards,0.211,422,422
04/05/2024 12:30:00,04/05/2024 13:00:00,26,Northward at Haywards,0.215,429,429
04/05/2024 13:00:00,04/05/2024 13:30:00,27,Northward at Haywards,0.206,412,412
04/05/2024 13:30:00,04/05/2024 14:00:00,28,Northward at Haywards,0.219,438,438
04/05/2024 14:00:00,04/05/2024 14:30:00,29,Northward at Haywards,0.216,431,431
04/05/2024 14:30:00,04/05/2024 15:00:00,30,Northward at Haywards,0.227,454,454
04/05/2024 15:00:00,04/05/2024 15:30:00,31,Northward at Haywards,0.220,439,439
04/05/2024 15:30:00,04/05/2024 16:00:00,32,Northward at Haywards,0.211,421,421
04/05/2024 16:00:00,04/05/2024 16:30:00,33,Northward at Haywards,0.240,480,480
04/05/2024 16:30:00,04/05/2024 17:00:00,34,Northward at Haywards,0.266,531,531
04/05/2024 17:00:00,04/05/2024 17:30:00,35,Northward at Haywards,0.268,536,536
04/05/2024 17:30:00,04/05/2024 18:00:00,36,Northward at Haywards,0.320,640,640
04/05/2024 18:00:00,04/05/2024 18:30:00,37,Northward at Haywards,0.344,688,688
04/05/2024 18:30:00,04/05/2024 19:00:00,38,Northward at Haywards,0.330,660,660
04/05/2024 19:00:00,04/05/2024 19:30:00,39,Northward at Haywards,0.309,617,617
04/05/2024 19:30:00,04/05/2024 20:00:00,40,Northward at Haywards,0.308,616,616
04/05/2024 20:00:00,04/05/2024 20:30:00,41,Northward at Haywards,0.323,646,646
04/05/2024 20:30:00,04/05/2024 21:00:00,42,Northward at Haywards,0.301,602,602
04/05/2024 21:00:00,04/05/2024 21:30:00,43,Northward at Haywards,0.313,626,626
04/05/2024 21:30:00,04/05/2024 22:00:00,44,Northward at Haywards,0.271,542,542
04/05/2024 22:00:00,04/05/2024 22:30:00,45,Northward at Haywards,0.244,488,488
04/05/2024 22:30:00,04/05/2024 23:00:00,46,Northward at Haywards,0.199,398,398
04/05/2024 23:00:00,04/05/2024 23:30:00,47,Northward at Haywards,0.181,361,361
04/05/2024 23:30:00,05/05/2024 00:00:00,48,Northward at Haywards,0.140,280,280
05/05/2024 00:00:00,05/05/2024 00:30:00,1,Northward at Haywards,0.106,212,212
05/05/2024 00:30:00,05/05/2024 01:00:00,2,Northward at Haywards,0.097,194,194
05/05/2024 01:00:00,05/05/2024 01:30:00,3,Northward at Haywards,0.091,181,181
05/05/2024 01:30:00,05/05/2024 02:00:00,4,Northward at Haywards,0.060,119,119
05/05/2024 02:00:00,05/05/2024 02:30:00,5,Northward at Haywards,0.028,55,55
05/05/2024 02:30:00,05/05/2024 03:00:00,6,Northward at Haywards,0.029,58,58
05/05/2024 03:00:00,05/05/2024 03:30:00,7,Northward at Haywards,0.026,52,52
05/05/2024 03:30:00,05/05/2024 04:00:00,8,Northward at Haywards,0.033,66,66
05/05/2024 04:00:00,05/05/2024 04:30:00,9,Northward at Haywards,0.030,59,59
05/05/2024 04:30:00,05/05/2024 05:00:00,10,Northward at Haywards,0.026,51,51
05/05/2024 05:00:00,05/05/2024 05:30:00,11,Northward at Haywards,0.039,78,78
05/05/2024 05:30:00,05/05/2024 06:00:00,12,Northward at Haywards,0.043,85,85
05/05/2024 06:00:00,05/05/2024 06:30:00,13,Northward at Haywards,0.090,180,180
05/05/2024 06:30:00,05/05/2024 07:00:00,14,Northward at Haywards,0.142,283,283
05/05/2024 07:00:00,05/05/2024 07:30:00,15,Northward at Haywards,0.188,376,376
05/05/2024 07:30:00,05/05/2024 08:00:00,16,Northward at Haywards,0.212,424,424
05/05/2024 08:00:00,05/05/2024 08:30:00,17,Northward at Haywards,0.272,543,543
05/05/2024 08:30:00,05/05/2024 09:00:00,18,Northward at Haywards,0.281,562,562
05/05/2024 09:00:00,05/05/2024 09:30:00,19,Northward at Haywards,0.269,538,538
05/05/2024 09:30:00,05/05/2024 10:00:00,20,Northward at Haywards,0.257,514,514
05/05/2024 10:00:00,05/05/2024 10:30:00,21,Northward at Haywards,0.244,488,488
05/05/2024 10:30:00,05/05/2024 11:00:00,22,Northward at Haywards,0.234,468,468
05/05/2024 11:00:00,05/05/2024 11:30:00,23,Northward at Haywards,0.204,407,407
05/05/2024 11:30:00,05/05/2024 12:00:00,24,Northward at Haywards,0.163,326,326
05/05/2024 12:00:00,05/05/2024 12:30:00,25,Northward at Haywards,0.167,334,334
05/05/2024 12:30:00,05/05/2024 13:00:00,26,Northward at Haywards,0.186,371,371
05/05/2024 13:00:00,05/05/2024 13:30:00,27,Northward at Haywards,0.173,345,345
05/05/2024 13:30:00,05/05/2024 14:00:00,28,Northward at Haywards,0.166,331,331
05/05/2024 14:00:00,05/05/2024 14:30:00,29,Northward at Haywards,0.143,285,285
05/05/2024 14:30:00,05/05/2024 15:00:00,30,Northward at Haywards,0.141,281,281
05/05/2024 15:00:00,05/05/2024 15:30:00,31,Northward at Haywards,0.151,301,301
05/05/2024 15:30:00,05/05/2024 16:00:00,32,Northward at Haywards,0.161,321,321
05/05/2024 16:00:00,05/05/2024 16:30:00,33,Northward at Haywards,0.203,406,406
05/05/2024 16:30:00,05/05/2024 17:00:00,34,Northward at Haywards,0.216,432,432
05/05/2024 17:00:00,05/05/2024 17:30:00,35,Northward at Haywards,0.247,494,494
05/05/2024 17:30:00,05/05/2024 18:00:00,36,Northward at Haywards,0.272,544,544
05/05/2024 18:00:00,05/05/2024 18:30:00,37,Northward at Haywards,0.304,608,608
05/05/2024 18:30:00,05/05/2024 19:00:00,38,Northward at Haywards,0.287,573,573
05/05/2024 19:00:00,05/05/2024 19:30:00,39,Northward at Haywards,0.269,538,538
05/05/2024 19:30:00,05/05/2024 20:00:00,40,Northward at Haywards,0.252,504,504
05/05/2024 20:00:00,05/05/2024 20:30:00,41,Northward at Haywards,0.230,460,460
05/05/2024 20:30:00,05/05/2024 21:00:00,42,Northward at Haywards,0.201,401,401
05/05/2024 21:00:00,05/05/2024 21:30:00,43,Northward at Haywards,0.191,382,382
05/05/2024 21:30:00,05/05/2024 22:00:00,44,Northward at Haywards,0.164,327,327
05/05/2024 22:00:00,05/05/2024 22:30:00,45,Northward at Haywards,0.113,225,225
05/05/2024 22:30:00,05/05/2024 23:00:00,46,Northward at Haywards,0.064,128,128
05/05/2024 23:00:00,05/05/2024 23:30:00,47,Northward at Haywards,0.016,32,32
05/05/2024 23:30:00,06/05/2024 00:00:00,48,Southward at Benmore,-0.017,-34,-34
06/05/2024 00:00:00,06/05/2024 00:30:00,1,Southward at Benmore,-0.057,-114,-114
06/05/2024 00:30:00,06/05/2024 01:00:00,2,Southward at Benmore,-0.091,-182,-182
06/05/2024 01:00:00,06/05/2024 01:30:00,3,Southward at Benmore,-0.121,-243,-243
06/05/2024 01:30:00,06/05/2024 02:00:00,4,Southward at Benmore,-0.114,-229,-229
06/05/2024 02:00:00,06/05/2024 02:30:00,5,Southward at Benmore,-0.120,-241,-241
06/05/2024 02:30:00,06/05/2024 03:00:00,6,Southward at Benmore,-0.097,-195,-195
06/05/2024 03:00:00,06/05/2024 03:30:00,7,Southward at Benmore,-0.102,-205,-205
06/05/2024 03:30:00,06/05/2024 04:00:00,8,Southward at Benmore,-0.081,-163,-163
06/05/2024 04:00:00,06/05/2024 04:30:00,9,Southward at Benmore,-0.066,-132,-132
06/05/2024 04:30:00,06/05/2024 05:00:00,10,Southward at Benmore,-0.069,-138,-138
06/05/2024 05:00:00,06/05/2024 05:30:00,11,Southward at Benmore,-0.058,-117,-117
06/05/2024 05:30:00,06/05/2024 06:00:00,12,Southward at Benmore,-0.022,-44,-44
06/05/2024 06:00:00,06/05/2024 06:30:00,13,Northward at Haywards,0.047,94,94
06/05/2024 06:30:00,06/05/2024 07:00:00,14,Northward at Haywards,0.135,269,269
06/05/2024 07:00:00,06/05/2024 07:30:00,15,Northward at Haywards,0.227,454,454
06/05/2024 07:30:00,06/05/2024 08:00:00,16,Northward at Haywards,0.262,523,523
06/05/2024 08:00:00,06/05/2024 08:30:00,17,Northward at Haywards,0.247,493,493
06/05/2024 08:30:00,06/05/2024 09:00:00,18,Northward at Haywards,0.188,375,375
06/05/2024 09:00:00,06/05/2024 09:30:00,19,Northward at Haywards,0.199,397,397
06/05/2024 09:30:00,06/05/2024 10:00:00,20,Northward at Haywards,0.152,304,304
06/05/2024 10:00:00,06/05/2024 10:30:00,21,Northward at Haywards,0.176,351,351
06/05/2024 10:30:00,06/05/2024 11:00:00,22,Northward at Haywards,0.175,349,349
06/05/2024 11:00:00,06/05/2024 11:30:00,23,Northward at Haywards,0.190,379,379
06/05/2024 11:30:00,06/05/2024 12:00:00,24,Northward at Haywards,0.163,326,326
06/05/2024 12:00:00,06/05/2024 12:30:00,25,Northward at Haywards,0.175,350,350
06/05/2024 12:30:00,06/05/2024 13:00:00,26,Northward at Haywards,0.148,296,296
06/05/2024 13:00:00,06/05/2024 13:30:00,27,Northward at Haywards,0.134,267,267
06/05/2024 13:30:00,06/05/2024 14:00:00,28,Northward at Haywards,0.132,263,263
06/05/2024 14:00:00,06/05/2024 14:30:00,29,Northward at Haywards,0.146,291,291
06/05/2024 14:30:00,06/05/2024 15:00:00,30,Northward at Haywards,0.152,304,304
06/05/2024 15:00:00,06/05/2024 15:30:00,31,Northward at Haywards,0.137,274,274
06/05/2024 15:30:00,06/05/2024 16:00:00,32,Northward at Haywards,0.219,437,437
06/05/2024 16:00:00,06/05/2024 16:30:00,33,Northward at Haywards,0.238,476,476
06/05/2024 16:30:00,06/05/2024 17:00:00,34,Northward at Haywards,0.255,509,509
06/05/2024 17:00:00,06/05/2024 17:30:00,35,Northward at Haywards,0.246,491,491
06/05/2024 17:30:00,06/05/2024 18:00:00,36,Northward at Haywards,0.301,601,601
06/05/2024 18:00:00,06/05/2024 18:30:00,37,Northward at Haywards,0.302,603,603
06/05/2024 18:30:00,06/05/2024 19:00:00,38,Northward at Haywards,0.298,596,596
06/05/2024 19:00:00,06/05/2024 19:30:00,39,Northward at Haywards,0.275,550,550
06/05/2024 19:30:00,06/05/2024 20:00:00,40,Northward at Haywards,0.199,398,398
06/05/2024 20:00:00,06/05/2024 20:30:00,41,Northward at Haywards,0.099,197,197
06/05/2024 20:30:00,06/05/2024 21:00:00,42,Northward at Haywards,0.071,141,141
06/05/2024 21:00:00,06/05/2024 21:30:00,43,Northward at Haywards,0.080,160,160
06/05/2024 21:30:00,06/05/2024 22:00:00,44,Northward at Haywards,0.062,124,124
06/05/2024 22:00:00,06/05/2024 22:30:00,45,Southward at Benmore,-0.002,-5,-5
06/05/2024 22:30:00,06/05/2024 23:00:00,46,Southward at Benmore,-0.041,-82,-82
06/05/2024 23:00:00,06/05/2024 23:30:00,47,Southward at Benmore,-0.085,-171,-171
06/05/2024 23:30:00,07/05/2024 00:00:00,48,Southward at Benmore,-0.130,-260,-260
07/05/2024 00:00:00,07/05/2024 00:30:00,1,Southward at Benmore,-0.149,-299,-299
07/05/2024 00:30:00,07/05/2024 01:00:00,2,Southward at Benmore,-0.158,-317,-317
07/05/2024 01:00:00,07/05/2024 01:30:00,3,Southward at Benmore,-0.157,-314,-314
07/05/2024 01:30:00,07/05/2024 02:00:00,4,Southward at Benmore,-0.139,-278,-278
07/05/2024 02:00:00,07/05/2024 02:30:00,5,Southward at Benmore,-0.128,-257,-257
07/05/2024 02:30:00,07/05/2024 03:00:00,6,Southward at Benmore,-0.167,-334,-334
07/05/2024 03:00:00,07/05/2024 03:30:00,7,Southward at Benmore,-0.164,-328,-328
07/05/2024 03:30:00,07/05/2024 04:00:00,8,Southward at Benmore,-0.146,-293,-293
07/05/2024 04:00:00,07/05/2024 04:30:00,9,Southward at Benmore,-0.138,-277,-277
07/05/2024 04:30:00,07/05/2024 05:00:00,10,Southward at Benmore,-0.137,-274,-274
07/05/2024 05:00:00,07/05/2024 05:30:00,11,Southward at Benmore,-0.100,-201,-201
07/05/2024 05:30:00,07/05/2024 06:00:00,12,Southward at Benmore,-0.052,-105,-105
07/05/2024 06:00:00,07/05/2024 06:30:00,13,Northward at Haywards,0.010,19,19
07/05/2024 06:30:00,07/05/2024 07:00:00,14,Northward at Haywards,0.085,170,170
07/05/2024 07:00:00,07/05/2024 07:30:00,15,Northward at Haywards,0.219,438,438
07/05/2024 07:30:00,07/05/2024 08:00:00,16,Northward at Haywards,0.205,410,410
07/05/2024 08:00:00,07/05/2024 08:30:00,17,Northward at Haywards,0.201,401,401
07/05/2024 08:30:00,07/05/2024 09:00:00,18,Northward at Haywards,0.179,357,357
07/05/2024 09:00:00,07/05/2024 09:30:00,19,Northward at Haywards,0.207,414,414
07/05/2024 09:30:00,07/05/2024 10:00:00,20,Northward at Haywards,0.209,418,418
07/05/2024 10:00:00,07/05/2024 10:30:00,21,Northward at Haywards,0.178,355,355
07/05/2024 10:30:00,07/05/2024 11:00:00,22,Northward at Haywards,0.138,276,276
07/05/2024 11:00:00,07/05/2024 11:30:00,23,Northward at Haywards,0.156,311,311
07/05/2024 11:30:00,07/05/2024 12:00:00,24,Northward at Haywards,0.181,361,361
07/05/2024 12:00:00,07/05/2024 12:30:00,25,Northward at Haywards,0.227,454,454
07/05/2024 12:30:00,07/05/2024 13:00:00,26,Northward at Haywards,0.242,484,484
07/05/2024 13:00:00,07/05/2024 13:30:00,27,Northward at Haywards,0.263,526,526
07/05/2024 13:30:00,07/05/2024 14:00:00,28,Northward at Haywards,0.268,536,536
07/05/2024 14:00:00,07/05/2024 14:30:00,29,Northward at Haywards,0.294,587,587
07/05/2024 14:30:00,07/05/2024 15:00:00,30,Northward at Haywards,0.291,582,582
07/05/2024 15:00:00,07/05/2024 15:30:00,31,Northward at Haywards,0.291,582,582
07/05/2024 15:30:00,07/05/2024 16:00:00,32,Northward at Haywards,0.282,564,564
07/05/2024 16:00:00,07/05/2024 16:30:00,33,Northward at Haywards,0.267,533,533
07/05/2024 16:30:00,07/05/2024 17:00:00,34,Northward at Haywards,0.275,550,550
07/05/2024 17:00:00,07/05/2024 17:30:00,35,Northward at Haywards,0.301,602,602
07/05/2024 17:30:00,07/05/2024 18:00:00,36,Northward at Haywards,0.321,642,642
07/05/2024 18:00:00,07/05/2024 18:30:00,37,Northward at Haywards,0.325,649,649
07/05/2024 18:30:00,07/05/2024 19:00:00,38,Northward at Haywards,0.314,627,627
07/05/2024 19:00:00,07/05/2024 19:30:00,39,Northward at Haywards,0.320,639,639
07/05/2024 19:30:00,07/05/2024 20:00:00,40,Northward at Haywards,0.284,568,568
07/05/2024 20:00:00,07/05/2024 20:30:00,41,Northward at Haywards,0.305,610,610
07/05/2024 20:30:00,07/05/2024 21:00:00,42,Northward at Haywards,0.296,592,592
07/05/2024 21:00:00,07/05/2024 21:30:00,43,Northward at Haywards,0.301,602,602
07/05/2024 21:30:00,07/05/2024 22:00:00,44,Northward at Haywards,0.278,556,556
07/05/2024 22:00:00,07/05/2024 22:30:00,45,Northward at Haywards,0.188,376,376
07/05/2024 22:30:00,07/05/2024 23:00:00,46,Northward at Haywards,0.142,284,284
07/05/2024 23:00:00,07/05/2024 23:30:00,47,Northward at Haywards,0.100,200,200
07/05/2024 23:30:00,08/05/2024 00:00:00,48,Northward at Haywards,0.078,155,155
08/05/2024 00:00:00,08/05/2024 00:30:00,1,Northward at Haywards,0.033,66,66
08/05/2024 00:30:00,08/05/2024 01:00:00,2,Northward at Haywards,0.024,47,47
08/05/2024 01:00:00,08/05/2024 01:30:00,3,Northward at Haywards,0.018,35,35
08/05/2024 01:30:00,08/05/2024 02:00:00,4,Southward at Benmore,-0.002,-5,-5
08/05/2024 02:00:00,08/05/2024 02:30:00,5,Southward at Benmore,-0.006,-12,-12
08/05/2024 02:30:00,08/05/2024 03:00:00,6,Southward at Benmore,-0.011,-23,-23
08/05/2024 03:00:00,08/05/2024 03:30:00,7,Northward at Haywards,0.019,37,37
08/05/2024 03:30:00,08/05/2024 04:00:00,8,Northward at Haywards,0.012,24,24
08/05/2024 04:00:00,08/05/2024 04:30:00,9,Northward at Haywards,0.037,73,73
08/05/2024 04:30:00,08/05/2024 05:00:00,10,Northward at Haywards,0.046,92,92
08/05/2024 05:00:00,08/05/2024 05:30:00,11,Northward at Haywards,0.085,169,169